Regional Weather Roundup
Issued by NWS

Home | Current Version | Previous Version | Graphics & Text | Print | Product List | Glossary On
Versions: 1 2 3 4 5 6 7 8 9 10 11 12 13 14 15 16 17 18 19 20 21 22 23 24 25 26 27 28 29 30 31 32 33 34 35 36 37 38 39 40 41 42 43 44 45 46 47 48 49 50
745
ASUS44 KMEG 241710
RWRTN
TENNESSEE HOURLY STATE WEATHER ROUNDUP
NATIONAL WEATHER SERVICE MEMPHIS TN
1200 PM CDT WED MAY 24 2017

TNZ002-004-019-021-049-052-054-088>092-241800-
WEST TENNESSEE

CITY           SKY/WX    TMP DP  RH WIND       PRES   REMARKS
MEMPHIS INTL   PTSUNNY   67  53  61 NW14      29.58F
NWS MEMPHIS      N/A     65 N/A N/A MISG        N/A
JACKSON        PTSUNNY   66  56  70 NW12      29.55S
DYERSBURG        N/A    N/A N/A N/A MISG        N/A
COVINGTON      PTSUNNY   66  52  59 NW9G16    29.57S
UNION CITY     MOSUNNY   64  55  72 NW7G17    29.54S
BOLIVAR        PTSUNNY   64  55  72 NW12G17   29.56S
PARIS          CLOUDY    59  57  94 VRB6      29.52S
HUNTINGDON     CLOUDY    61  57  88 VRB6G13   29.53R
LEXINGTON      CLOUDY    59  55  88 MISG      29.55
SELMER         PTSUNNY   63  55  77 VRB7G14   29.55S
SAVANNAH       PTSUNNY   63  55  77 NW8G17    29.55R
$$

TNZ008-025-027-028-033-062-065-066-241800-
NORTH MIDDLE TENNESSEE

CITY           SKY/WX    TMP DP  RH WIND       PRES   REMARKS
NASHVILLE      RAIN      63  60  90 W23G31    29.41S FOG
PORTLAND       CLOUDY    61  61 100 NE6       29.40F
CLARKSVILLE    LGT RAIN  57  54  89 NW20      29.48R FOG
SMYRNA         LGT RAIN  66  62  87 SW10      29.40F
COOKEVILLE     PTSUNNY   68  61  77 S9        29.40F
GALLATIN       CLOUDY    64  61  88 N7        29.43
CROSSVILLE     PTSUNNY   65  58  78 S10G17    29.48F
$$

TNZ061-075-076-078-094-096-097-241800-
SOUTH MIDDLE TENNESSEE

CITY           SKY/WX    TMP DP  RH WIND       PRES   REMARKS
FAYETTEVILLE   PTSUNNY   64  57  77 W17G25    29.49R
TULLAHOMA      CLOUDY    63  59  88 SW21      29.45R
WINCHESTER     PTSUNNY   70  59  68 W21G32      N/A
COLUMBIA       CLOUDY    61  57  88 W8G16     29.46R
SHELBYVILLE    PTSUNNY   64  63  94 SW9       29.42S
$$

TNZ017-018-042-046-047-241800-
NORTHEAST TENNESSEE

CITY           SKY/WX    TMP DP  RH WIND       PRES   REMARKS
TRI CITIES     PTSUNNY   71  58  63 SE16G28   29.48F
ELIZABETHTON   CLOUDY    72  59  64 SE8G15    29.51S
$$

TNZ012-013-036-069-073-074-241800-
CENTRAL EAST TENNESSEE

CITY           SKY/WX    TMP DP  RH WIND       PRES   REMARKS
KNOXVILLE      LGT RAIN  61  58  90 S12       29.51F
OAK RIDGE      LGT RAIN  64  60  87 VRB6      29.51R
DOWNTOWN KNOXV MOSUNNY   63  61  94 VRB6G14   29.52R
GATLINBURG     CLOUDY    61  55  82 SW9       29.54R
MORRISTOWN     SUNNY     63  61  94 SW8G16    29.52R
JACKSBORO      CLOUDY    64  61  88 VRB3      29.51F
$$

TNZ083-085-099-241800-
SOUTHEAST TENNESSEE

CITY           SKY/WX    TMP DP  RH WIND       PRES   REMARKS
CHATTANOOGA    PTSUNNY   69  60  73 S13       29.50F
$$

SKY/WX REPORTED AS FAIR MEANS FEW OR NO CLOUDS BELOW
12 THOUSAND FEET.





USA.gov is the U.S. government's official web portal to all federal, state and local government web resources and services.